GW5123 Weather Reports


Display with metric or nautical units.
time (UTC)temp
F
wind
direction
speed
MPH
gust
MPH
rain 1hr
in
rain 24hr
in
rain mn
in
humidity
%
barometer
mb
20260505022015 59 207 1.0 1.0 0.00 0.04 0.04 63 1011.2
20260505021512 58 236 0.0 0.0 0.00 0.04 0.04 65 1011.2
20260505021008 59 225 0.0 0.0 0.00 0.04 0.04 62 1011.0
20260505020503 59 220 0.0 0.0 0.00 0.04 0.04 63 1011.0
20260505020000 58 284 0.0 0.0 0.00 0.04 0.04 66 1011.3
20260505015457 58 249 0.0 0.0 0.00 0.04 0.04 65 1011.2
20260505014954 59 229 0.0 0.0 0.00 0.04 0.04 64 1011.2
20260505014451 59 223 0.0 1.0 0.00 0.04 0.04 65 1010.9
20260505013948 59 278 1.0 1.0 0.00 0.04 0.04 63 1010.9
20260505013445 59 254 0.0 0.0 0.00 0.04 0.04 66 1011.0
20260505012943 59 255 0.0 0.0 0.00 0.04 0.04 67 1011.0
20260505012441 60 234 0.0 2.0 0.00 0.04 0.04 65 1011.2
20260505011937 60 206 0.0 0.0 0.00 0.04 0.04 65 1011.0
20260505011433 60 214 0.0 0.0 0.00 0.04 0.04 65 1011.0
20260505010930 60 283 0.0 0.0 0.00 0.04 0.04 66 1011.0
20260505010426 59 246 0.0 0.0 0.00 0.04 0.04 67 1011.0
20260505005922 59 257 0.0 0.0 0.00 0.04 0.04 68 1010.9
20260505005419 59 248 0.0 0.0 0.00 0.04 0.04 68 1011.0
20260505004916 59 260 0.0 0.0 0.00 0.04 0.04 70 1010.9
20260505004413 59 219 0.0 0.0 0.00 0.04 0.04 69 1011.2
20260505003910 59 267 0.0 0.0 0.00 0.04 0.04 69 1010.9
20260505003407 59 276 0.0 0.0 0.00 0.04 0.04 69 1010.6
20260505002903 60 279 0.0 0.0 0.00 0.04 0.04 68 1010.7
20260505002400 60 250 0.0 0.0 0.00 0.04 0.04 67 1010.8
20260505001858 60 284 0.0 0.0 0.00 0.04 0.04 66 1010.8
20260505001355 61 289 0.0 0.0 0.00 0.04 0.04 65 1010.7
20260505000853 62 244 0.0 0.0 0.00 0.04 0.04 64 1010.8
20260505000351 62 219 0.0 0.0 0.00 0.04 0.04 62 1010.7
20260504235846 62 216 0.0 0.0 0.00 0.04 0.04 62 1010.6
20260504235344 63 237 0.0 0.0 0.00 0.04 0.04 61 1010.6
20260504234840 63 359 0.0 1.0 0.00 0.04 0.04 60 1010.5
20260504234338 64 211 0.0 2.0 0.00 0.04 0.04 60 1010.5
20260504233834 64 207 2.0 2.0 0.00 0.04 0.04 59 1010.6
20260504233330 64 220 0.0 0.0 0.00 0.04 0.04 59 1010.6
20260504232827 65 102 3.0 3.0 0.00 0.04 0.04 57 1010.6
20260504232324 65 90 0.0 2.0 0.00 0.04 0.04 58 1010.7
20260504231821 65 114 4.0 8.0 0.00 0.04 0.04 56 1010.7
20260504231317 65 113 1.0 2.0 0.00 0.04 0.04 55 1010.7
20260504230813 65 192 2.0 3.0 0.00 0.04 0.04 55 1010.8
20260504230311 65 293 2.0 2.0 0.00 0.04 0.04 56 1010.7
20260504225810 66 262 0.0 3.0 0.00 0.04 0.04 54 1010.8
20260504225306 66 77 1.0 6.0 0.00 0.04 0.04 53 1011.0
20260504224803 65 77 0.0 0.0 0.00 0.04 0.04 55 1011.0
20260504224300 66 201 0.0 1.0 0.00 0.04 0.04 55 1011.0
20260504223757 66 35 2.0 3.0 0.00 0.04 0.04 54 1010.9
20260504223252 65 331 0.0 1.0 0.00 0.04 0.04 57 1011.0
20260504222749 65 30 1.0 7.0 0.00 0.04 0.04 54 1011.0
20260504222246 66 255 2.0 6.0 0.00 0.04 0.04 53 1011.0
20260504221744 65 119 0.0 2.0 0.00 0.04 0.04 54 1011.0
20260504221241 66 33 2.0 4.0 0.00 0.04 0.04 53 1011.2
20260504220738 65 352 4.0 6.0 0.00 0.04 0.04 52 1011.4
20260504220235 65 300 2.0 3.0 0.00 0.04 0.04 55 1011.2
20260504215732 64 254 3.0 4.0 0.00 0.04 0.04 55 1011.3
20260504215228 65 257 1.0 3.0 0.00 0.04 0.04 53 1011.4
20260504214724 64 90 1.0 3.0 0.00 0.04 0.04 56 1011.3
20260504214221 64 270 3.0 4.0 0.00 0.04 0.04 55 1011.4
20260504213718 65 66 2.0 4.0 0.00 0.04 0.04 54 1011.4
20260504213214 66 76 1.0 4.0 0.00 0.04 0.04 56 1011.3
20260504212711 65 19 0.0 2.0 0.00 0.04 0.04 56 1011.3
20260504212208 63 99 2.0 3.0 0.00 0.04 0.04 58 1011.5
20260504211705 63 50 3.0 4.0 0.00 0.04 0.04 56 1011.8
20260504211201 63 348 2.0 3.0 0.00 0.04 0.04 56 1011.8
20260504210659 64 92 1.0 6.0 0.00 0.04 0.04 56 1011.5
20260504210155 64 333 3.0 8.0 0.00 0.04 0.04 54 1011.4
20260504205653 64 23 1.0 9.0 0.00 0.04 0.04 59 1011.2
20260504205150 64 39 1.0 3.0 0.00 0.04 0.04 54 1011.2
20260504204648 64 342 4.0 8.0 0.00 0.04 0.04 54 1011.2
20260504204147 64 90 0.0 2.0 0.00 0.04 0.04 54 1010.9
20260504203645 65 52 2.0 2.0 0.00 0.04 0.04 54 1010.9
20260504203143 66 110 2.0 2.0 0.00 0.04 0.04 50 1011.0
20260504202643 66 331 2.0 3.0 0.00 0.04 0.04 52 1011.2
20260504202140 66 66 5.0 13.0 0.00 0.04 0.04 49 1011.2
20260504201637 66 289 3.0 9.0 0.00 0.04 0.04 48 1011.2
20260504201135 66 299 2.0 7.0 0.00 0.04 0.04 48 1011.4
20260504200631 68 10 4.0 8.0 0.00 0.04 0.04 47 1011.4
20260504200128 68 122 2.0 4.0 0.00 0.04 0.04 47 1011.0
20260504195624 69 261 4.0 10.0 0.00 0.04 0.04 49 1011.3
20260504195120 68 10 4.0 13.0 0.00 0.04 0.04 47 1011.4
20260504194617 68 51 2.0 6.0 0.00 0.04 0.04 50 1011.5
20260504194113 68 111 6.0 9.0 0.00 0.04 0.04 47 1011.3
20260504193609 67 23 1.0 8.0 0.00 0.04 0.04 46 1011.3
20260504193108 68 226 3.0 10.0 0.00 0.04 0.04 49 1011.2
20260504192606 68 34 6.0 7.0 0.00 0.04 0.04 47 1011.4
20260504192104 69 7 6.0 11.0 0.00 0.04 0.04 47 1011.2
20260504191602 68 21 1.0 6.0 0.00 0.04 0.04 47 1011.3
20260504191057 68 14 1.0 8.0 0.00 0.04 0.04 49 1011.0
20260504190553 68 279 6.0 10.0 0.00 0.04 0.04 46 1011.4
20260504190050 67 297 4.0 15.0 0.00 0.04 0.04 50 1011.5
20260504185547 66 59 6.0 8.0 0.00 0.04 0.04 50 1011.6
20260504185043 66 220 3.0 10.0 0.00 0.04 0.04 52 1011.3
20260504184539 67 25 4.0 7.0 0.00 0.04 0.04 49 1011.4
20260504184034 67 51 2.0 8.0 0.00 0.04 0.04 50 1011.6
20260504183532 66 27 7.0 16.0 0.00 0.04 0.04 50 1011.5
20260504183030 66 144 4.0 4.0 0.00 0.04 0.04 50 1011.7
20260504182526 67 345 4.0 7.0 0.00 0.04 0.04 47 1011.6
20260504182024 67 334 7.0 10.0 0.00 0.04 0.04 48 1011.7
20260504181521 66 9 1.0 4.0 0.00 0.04 0.04 51 1011.9
20260504181020 65 62 3.0 7.0 0.00 0.04 0.04 51 1011.8
20260504180518 66 48 8.0 13.0 0.00 0.04 0.04 49 1012.2
20260504180016 65 260 4.0 8.0 0.00 0.04 0.04 55 1011.9
20260504175513 66 322 7.0 11.0 0.00 0.04 0.04 49 1012.2
20260504175010 67 272 1.0 9.0 0.00 0.04 0.04 55 1012.4
20260504174508 65 38 3.0 14.0 0.00 0.04 0.04 50 1012.3
20260504174005 65 114 2.0 8.0 0.00 0.04 0.04 52 1012.2
20260504173501 64 77 11.0 15.0 0.00 0.04 0.04 52 1012.4
20260504172959 64 72 9.0 11.0 0.00 0.04 0.04 53 1012.4
20260504172454 64 83 4.0 6.0 0.00 0.04 0.04 56 1012.1
20260504171951 63 76 1.0 6.0 0.00 0.04 0.04 59 1012.2
20260504171448 63 312 5.0 7.0 0.00 0.04 0.04 55 1012.8
20260504170945 63 71 2.0 6.0 0.00 0.04 0.04 61 1012.8
20260504170441 62 336 2.0 4.0 0.00 0.04 0.04 55 1012.9
20260504160401 57 18 2.0 4.0 0.00 0.04 0.04 61 1014.2
20260504150825 58 76 3.0 6.0 0.00 0.04 0.04 58 1014.0
20260504150322 58 172 2.0 7.0 0.00 0.04 0.04 57 1013.9
20260504141252 56 276 1.0 9.0 0.00 0.04 0.04 59 1014.0
20260504140748 56 28 3.0 13.0 0.00 0.04 0.04 57 1013.8
20260504140244 57 2 4.0 8.0 0.00 0.04 0.04 59 1014.3
20260504130713 54 18 3.0 8.0 0.00 0.04 0.04 61 1013.8
20260504130209 54 243 0.0 1.0 0.00 0.04 0.04 70 1013.8
20260504120133 47 261 1.0 2.0 0.00 0.04 0.04 81 1013.9
20260504110600 38 278 0.0 0.0 0.00 0.04 0.04 99 1013.8
20260504100522 39 288 0.0 0.0 0.00 0.04 0.04 99 1014.0
20260504081915 41 283 0.0 0.0 0.00 0.04 0.04 97 1014.2
20260504081412 41 272 0.0 0.0 0.00 0.04 0.04 97 1014.3
20260504080908 41 272 0.0 0.0 0.00 0.04 0.04 97 1014.2
20260504080405 41 272 0.0 0.0 0.00 0.04 0.04 97 1014.2
20260504070332 42 263 0.0 0.0 0.07 0.04 0.04 96 1014.5
20260504050721 42 351 0.0 0.0 0.00 0.00 0.00 67 1015.2
20260504050217 42 351 0.0 0.0 0.00 0.00 0.00 66 1014.9
20260504045715 41 305 0.0 0.0 0.00 0.00 0.00 67 1015.0
20260504045215 42 261 0.0 0.0 0.00 0.00 0.00 71 1014.8
20260504044713 42 261 0.0 0.0 0.00 0.00 0.00 70 1015.0
20260504044210 42 278 0.0 0.0 0.00 0.00 0.00 69 1015.0
20260504043707 42 272 0.0 0.0 0.00 0.00 0.00 67 1014.8
20260504043204 42 275 0.0 0.0 0.00 0.00 0.00 65 1015.0
20260504042701 43 276 0.0 0.0 0.00 0.00 0.00 65 1014.8
20260504042158 43 272 0.0 0.0 0.00 0.00 0.00 62 1014.9
20260504041654 44 249 0.0 0.0 0.00 0.00 0.00 64 1014.8
20260504041150 43 300 0.0 0.0 0.00 0.00 0.00 63 1014.9
20260504040647 43 315 0.0 0.0 0.00 0.00 0.00 63 1014.8
20260504040144 43 288 0.0 0.0 0.00 0.00 0.00 63 1014.7
20260504035640 43 357 0.0 0.0 0.00 0.00 0.00 68 1014.8
20260504035137 43 294 0.0 0.0 0.00 0.00 0.00 59 1014.9
20260504034635 43 279 0.0 0.0 0.00 0.00 0.00 62 1014.9
20260504034132 43 276 0.0 0.0 0.00 0.00 0.00 59 1014.9
20260504033630 44 294 0.0 0.0 0.00 0.00 0.00 59 1014.9
20260504033127 44 310 0.0 0.0 0.00 0.00 0.00 59 1014.8
20260504032624 44 296 0.0 0.0 0.00 0.00 0.00 57 1014.8
20260504032120 44 298 0.0 0.0 0.00 0.00 0.00 56 1014.9
20260504031618 44 298 0.0 0.0 0.00 0.00 0.00 57 1015.0
20260504031113 44 296 0.0 0.0 0.00 0.00 0.00 56 1014.9
20260504030611 44 308 0.0 0.0 0.00 0.00 0.00 56 1015.0
20260504030108 45 325 0.0 0.0 0.00 0.00 0.00 59 1014.9
20260504025604 45 326 0.0 0.0 0.00 0.00 0.00 56 1014.8
20260504025101 45 300 0.0 0.0 0.00 0.00 0.00 57 1014.8
20260504024558 45 285 0.0 0.0 0.00 0.00 0.00 54 1014.8
20260504024055 46 284 0.0 0.0 0.00 0.00 0.00 56 1015.1
20260504023551 46 285 0.0 0.0 0.00 0.00 0.00 53 1015.1
20260504023047 46 285 0.0 0.0 0.00 0.00 0.00 54 1015.0
20260504022543 46 285 0.0 0.0 0.00 0.00 0.00 51 1014.9